Regional Weather Roundup
Issued by NWS

Home | Current Version | Previous Version | Graphics & Text | Print | Product List | Glossary On
Versions: 1 2 3 4 5 6 7 8 9 10 11 12 13 14 15 16 17 18 19 20 21 22 23 24 25 26 27 28 29 30 31 32 33 34 35 36 37 38 39 40 41 42 43 44 45 46 47 48 49 50
000
ASUS43 KBIS 250320
RWRND

NORTH DAKOTA REGIONAL WEATHER ROUNDUP
NATIONAL WEATHER SERVICE BISMARCK ND
1000 PM CDT THU APR 24 2014

NOTE: "FAIR" INDICATES FEW OR NO CLOUDS BELOW 12,000 FEET WITH NO
SIGNIFICANT WEATHER AND/OR OBSTRUCTIONS TO VISIBILITY.


NDZ001>003-009>011-017-250400-
NORTHWEST NORTH DAKOTA

CITY           SKY/WX    TMP DP  RH WIND       PRES   REMARKS
WILLISTON      PTCLDY    41  27  57 CALM      29.71R
MINOT          PTCLDY    48  35  60 S5        29.71R
MINOT AFB      MOCLDY    47  38  71 S6        29.70R
$$

NDZ018>021-031>035-040>046-250400-
SOUTHWEST NORTH DAKOTA

CITY           SKY/WX    TMP DP  RH WIND       PRES   REMARKS
BISMARCK       CLEAR     42  30  62 CALM      29.75R
DICKINSON      MOCLDY    50  23  34 NE3       29.73R
GARRISON         N/A     45  32  60 CALM      29.72R
HETTINGER ARPT CLOUDY    43  26  51 CALM      29.77R
$$

NDZ004>008-012>016-024-026-027-054-250400-
NORTHEAST NORTH DAKOTA

CITY           SKY/WX    TMP DP  RH WIND       PRES   REMARKS
GRAND FORKS    CLOUDY    40  39  97 E5        29.72S FOG
GRND FRKS AFB  CLOUDY    41  41 100 E1        29.73S FOG
DEVILS LAKE    CLEAR     39  36  87 S3        29.71F
$$

NDZ022-023-025-028>030-036>039-047>053-250400-
SOUTHEAST NORTH DAKOTA

CITY           SKY/WX    TMP DP  RH WIND       PRES   REMARKS
FARGO          MOCLDY    43  41  93 CALM      29.70R
JAMESTOWN      CLEAR     39  35  86 NW7       29.71R
$$




USA.gov is the U.S. government's official web portal to all federal, state and local government web resources and services.